{"data":{"norad_id":35498,"epoch":"2026-05-25T04:39:12.694752Z","epoch_age_seconds":52063,"freshness":"FRESH","line1":"1 35498U 09036A   26145.19389693  .00000039  00000+0  21973-3 0  9999","line2":"2 35498  82.4860 106.6290 0005461 262.7467  97.2990 12.40870061764791","mean_motion":12.40870061,"eccentricity":0.0005461,"inclination_deg":82.486,"raan_deg":106.629,"arg_perigee_deg":262.7467,"mean_anomaly_deg":97.299,"bstar":0.00021973,"rev_number":76479,"period_min":116.04760605148,"perigee_km":1498.6131664707,"apogee_km":1507.2208536605,"semimajor_km":7881.0540100656,"source":"CELESTRAK","updated_at":"2026-05-25T13:37:55.158190Z"}}